Showing default

UM5-RIBAT, 60554

Orbit data source: Space-Track

UM5-RIBAT, 60554 is a Moroccan payload satellite in SSO that was launched on Fri, 16 Aug 2024 UTC via an FALCON 9 launch vehicle from the Air Force Western Test Range (AFWTR). Payload-class satellites include a variety of spacecraft equipped with specific instruments for various scientific and technological missions. These include communications satellites like Starlink; space stations such as the ISS; scientific satellites like the Hubble; Earth observation satellites from companies like Planet Labs, Umbra, and HawkEye 360; GPS; miniature CubeSats for education and research; and military/defense satellites.

Loading next visibility...
Identifier
60554, 2024-149CQ
Orbit
SSO
Country
Flag of MAMA
Related business
Manufacturer
UM5R
Mission
Operational Amateur Technology
Bus & Motor
CUBESAT 3U, Unknown motor
Mass
5 kg wet, 5 kg dry
Launch date (UTC)
2024-08-16 (1 year ago)
Launch vehicle
FALCON 9
Launch site
Air Force Western Test Range (AFWTR)
Object type
Payload
Rocket body
Debris
Shape & HBR
Box, 0.1 m
Radar Cross Section
0.080 m², Small (<0.1 m²)

Expand to show TLE details & history
Last TLE update: 21 hours ago

TLE from 21 hours ago
0 UM5-RIBAT
1 60554U 24149CQ  26034.18143450  .00004236  00000-0  34375-3 0  9991
2 60554  97.6941 113.7065 0005333 152.4415 207.7092 15.00176167 80095
Epoch: 2026-02-03T04:21Z
TLE epoch observation values (Epoch: 2026-02-03T04:21:15.940Z)
Latitude
-0.00006°
Longitude
-84.97596°
Altitude
572.688 km
Speed
7.573 km/s
True Right ascension
07h 34m 49s
True Declination
0° 00' 00"
Sunlit
Object was in full shadow at epoch
Visualization orbit readout
Latitude
Unknown
Longitude
Unknown
Altitude
Unknown
Speed
Unknown
Apparent Right ascension
Unknown
Apparent Declination
Unknown
Sunlit
N/A
Visualization observer readout
Local Sidereal Time
02:55:44
Azimuth
Unknown
Elevation
Unknown
Doppler factor
Unknown
Orbital elements
Apogee altitude
567.059 km
Perigee altitude
559.656 km
Semi-major axis
6,941.494 km
Eccentricity
0.00053
Inclination
97.6941°
RAAN
113.7065°
Arg. of periapsis
152.4415°
True anomaly
207.6808°
Mean anomaly
207.7092°
Eccentric anomaly
207.695°
Mean motion
3.75287 °/min
Orbital period
95.93 mins
BSTAR
0.00034375
Loading maneuver chart data...
Computing Atmospheric mass density...
Loading historical data...
Loading historical data...
Loading historical data...
Loading historical data...
Loading historical data...
Loading historical data...
Loading historical data...

Documentation

Showing up to 5 results
|